[[{"header":{"parameterUnit":"m.s-1","parameterCategory":1,"la1":30.2991,"la2":30.254,"lo1":-89.0895,"lo2":-89.0444,"dy":0.0017,"dx":0.0017,"nx":28,"ny":28,"refTime":"2024-04-19T03:00:00:Z","depth":0,"parameterNumber":2,"parameterNumberName":"U-component_of_WINDS"},"data":[0,0,0,0,0,0,0,0,0,0,0,0,0,0,0,0,0,0,0,0,0,0,0,0,0,0,0,0,0,0,0,0,0,0,0,0,0,0,0,0,0,0,0,0,0,0,0,0,0,0,0,0,0,0,0,0,0,0,-0.1087,-0.1086,0,-0.0974,-0.0973,-0.0972,-0.0929,-0.093,-0.093,-0.0931,-0.0813,-0.0809,-0.0806,0,0,0,0,0,0,0,0,0,0,0,0,0,-0.1266,-0.1263,-0.1087,-0.1086,-0.1085,-0.0974,-0.0973,-0.0971,-0.0929,-0.093,-0.093,-0.0931,-0.0814,-0.081,-0.0806,0,0,0,0,0,0,0,0,0,0,0,0,0,-0.1174,-0.1262,-0.1088,-0.105,-0.1046,-0.0975,-0.0973,-0.0971,-0.0929,-0.093,-0.093,-0.0931,-0.0815,-0.081,-0.0805,-0.0762,0,0,-0.0789,-0.0787,0,0,0,0,0,0,0,0,-0.1179,-0.1167,-0.1057,-0.1053,-0.1048,-0.0967,-0.0993,-0.0901,-0.0929,-0.0974,-0.0931,-0.0931,-0.0863,-0.0854,-0.0832,-0.0756,-0.0751,-0.0789,-0.0785,-0.0783,-0.0782,0,0,0,0,0,0,0,-0.1186,-0.1172,-0.1043,-0.1056,-0.105,-0.1039,-0.1027,-0.0975,-0.0917,-0.097,-0.0966,-0.0954,-0.0861,-0.0837,-0.0829,-0.075,-0.0789,-0.0784,-0.0781,-0.0779,-0.0634,-0.0633,0,0,0,0,0,0,-0.1198,-0.1178,-0.1046,-0.1039,-0.1116,-0.1035,-0.1021,-0.0992,-0.0917,-0.0906,-0.0953,-0.0952,-0.0845,-0.0835,-0.0824,-0.0769,-0.0783,-0.0778,-0.0775,-0.0634,-0.0633,-0.0633,0,0,0,0,0,0,-0.1202,-0.1187,-0.1051,-0.1107,-0.1089,-0.1032,-0.0999,-0.0989,-0.0966,-0.0905,-0.0894,-0.094,-0.0845,-0.0832,-0.0778,-0.0764,-0.0776,-0.0771,-0.0635,-0.0634,-0.0633,-0.0658,0,0,0,0,0,0,-0.1208,-0.1189,-0.1172,-0.1107,-0.1086,-0.1007,-0.0998,-0.0987,-0.0957,-0.0954,-0.0889,-0.0879,-0.0845,-0.0786,-0.0773,-0.0757,-0.0767,-0.0636,-0.0635,-0.0633,-0.0658,-0.0658,-0.0658,0,0,0,0,0,-0.1214,-0.1183,-0.1171,-0.1156,-0.1064,-0.1006,-0.0994,-0.0956,-0.0956,-0.0939,-0.09,-0.0881,-0.0768,-0.0781,-0.0766,-0.0748,-0.0637,-0.0635,-0.0633,-0.0659,-0.0658,-0.0658,0,0,0,0,0,0,-0.1247,-0.1174,-0.116,-0.1107,-0.1063,-0.0999,-0.0976,-0.0957,-0.0911,-0.0911,-0.0865,-0.0851,-0.0801,-0.0769,-0.0785,-0.0703,-0.0701,-0.0696,-0.0725,-0.0725,-0.0725,-0.0733,-0.0763,0,0,0,0,0,-0.1248,-0.1207,-0.1146,-0.1105,-0.1084,-0.1034,-0.1007,-0.0982,-0.0934,-0.0915,-0.0872,-0.0826,-0.078,-0.0751,-0.0705,-0.0654,-0.0639,-0.0635,-0.0634,-0.0635,-0.0631,-0.0601,-0.0599,-0.0627,-0.0627,-0.0627,0,0,-0.125,-0.1205,-0.1182,-0.1111,-0.1073,-0.1032,-0.1018,-0.0975,-0.0943,-0.0908,-0.0855,-0.0822,-0.0767,-0.0715,-0.069,-0.0687,-0.062,-0.0632,-0.0633,-0.0629,-0.06,-0.0597,-0.0595,-0.0626,-0.0626,-0.0626,0,0,-0.1232,-0.1194,-0.1156,-0.112,-0.1064,-0.1031,-0.1022,-0.0961,-0.0938,-0.0884,-0.0857,-0.0818,-0.074,-0.0703,-0.0673,-0.0642,-0.0623,-0.0629,-0.0627,-0.0599,-0.0597,-0.0595,-0.0584,-0.058,-0.0625,-0.0625,-0.0625,0,-0.1242,-0.1178,-0.1139,-0.1097,-0.1067,-0.1034,-0.0995,-0.0961,-0.0893,-0.0872,-0.0871,-0.0773,-0.0733,-0.0672,-0.0664,-0.0642,-0.063,-0.0635,-0.0601,-0.0598,-0.0595,-0.0584,-0.058,-0.0626,-0.0626,-0.0626,-0.0626,0,-0.1192,-0.1149,-0.1125,-0.1061,-0.1027,-0.0987,-0.0942,-0.0913,-0.0891,-0.0858,-0.0804,-0.0756,-0.07,-0.0684,-0.0661,-0.0619,-0.0619,-0.061,-0.0607,-0.0594,-0.0583,-0.0578,-0.0628,-0.0627,-0.0627,-0.0627,0,0,-0.1191,-0.1107,-0.1099,-0.1069,-0.1006,-0.0971,-0.0929,-0.0876,-0.0852,-0.0806,-0.077,-0.0705,-0.0696,-0.0663,-0.0636,-0.0612,-0.059,-0.0605,-0.0603,-0.0604,-0.054,-0.0548,-0.0543,-0.0577,-0.0576,-0.0576,-0.0545,0,-0.1165,-0.1089,-0.1053,-0.0994,-0.0953,-0.0921,-0.0885,-0.0842,-0.0811,-0.0771,-0.0736,-0.0691,-0.0682,-0.0662,-0.0637,-0.0598,-0.0577,-0.06,-0.0543,-0.0541,-0.0557,-0.0537,-0.0544,-0.0518,-0.054,-0.0539,-0.0539,0,-0.1124,-0.1079,-0.1015,-0.0957,-0.0938,-0.0907,-0.0855,-0.0818,-0.0768,-0.0747,-0.071,-0.0685,-0.0639,-0.064,-0.0577,-0.0594,-0.0568,-0.0546,-0.0544,-0.0537,-0.0539,-0.0529,-0.0508,-0.0504,-0.0531,-0.0532,-0.0532,0,-0.1129,-0.1053,-0.1005,-0.0981,-0.0912,-0.089,-0.086,-0.0811,-0.0781,-0.0736,-0.0716,-0.0666,-0.0638,-0.06,-0.0561,-0.0565,-0.0501,-0.0499,-0.0482,-0.0483,-0.047,-0.0471,-0.0444,-0.0454,-0.0454,-0.0454,-0.0454,0,-0.1103,-0.1066,-0.1007,-0.0977,-0.0934,-0.0893,-0.0852,-0.0819,-0.0776,-0.074,-0.0709,-0.0676,-0.0627,-0.0587,-0.0556,-0.0508,-0.0496,-0.0477,-0.0469,-0.048,-0.0482,-0.0462,-0.0463,-0.0453,-0.0453,-0.0453,-0.0454,0,-0.1102,-0.1061,-0.1007,-0.0946,-0.093,-0.0901,-0.0848,-0.0819,-0.0786,-0.074,-0.0727,-0.0675,-0.0627,-0.0585,-0.052,-0.0499,-0.045,-0.0441,-0.0467,-0.0463,-0.0448,-0.045,-0.0407,-0.0399,-0.0415,-0.0415,-0.0415,0,-0.1088,-0.1058,-0.0995,-0.0968,-0.0939,-0.0897,-0.0866,-0.0825,-0.0795,-0.0737,-0.0714,-0.0663,-0.062,-0.0544,-0.0501,-0.0451,-0.044,-0.0429,-0.0432,-0.0444,-0.044,-0.0442,-0.0439,-0.0428,-0.0429,-0.0429,-0.0429,0,-0.1068,-0.1049,-0.1007,-0.0957,-0.0922,-0.0881,-0.0839,-0.0819,-0.077,-0.0737,-0.0688,-0.0655,-0.059,-0.054,-0.0486,-0.0454,-0.0433,-0.0428,-0.0421,-0.0431,-0.0448,-0.0438,-0.0467,-0.0429,-0.0429,-0.0429,-0.0429,-0.0429,-0.1059,-0.1032,-0.0982,-0.0936,-0.0901,-0.0862,-0.0831,-0.0795,-0.0753,-0.0697,-0.0675,-0.0625,-0.0576,-0.0502,-0.047,-0.043,-0.0426,-0.0417,-0.0414,-0.0412,-0.0414,-0.0455,-0.042,-0.042,-0.042,-0.042,-0.0419,0,-0.1037,-0.1004,-0.0962,-0.0905,-0.0869,-0.0853,-0.0806,-0.0776,-0.0732,-0.0689,-0.0648,-0.0591,-0.0543,-0.0496,-0.0445,-0.0421,-0.041,-0.0409,-0.041,-0.0403,-0.042,-0.0431,-0.0419,-0.0419,-0.0419,-0.0419,-0.0419,-0.0419,-0.1021,-0.0974,-0.0949,-0.0884,-0.0851,-0.0801,-0.0776,-0.074,-0.0705,-0.0643,-0.0603,-0.0573,-0.0528,-0.0474,-0.0429,-0.0416,-0.0399,-0.04,-0.0385,-0.0402,-0.0402,-0.0403,-0.0413,-0.0397,-0.0397,-0.0371,-0.0371,-0.0371]},{"header":{"parameterUnit":"m.s-1","parameterCategory":1,"la1":30.2991,"la2":30.254,"lo1":-89.0895,"lo2":-89.0444,"dy":0.0017,"dx":0.0017,"nx":28,"ny":28,"refTime":"2024-04-19T03:00:00:Z","depth":0,"parameterNumber":3,"parameterNumberName":"V-component_of_WINDS"},"data":[0,0,0,0,0,0,0,0,0,0,0,0,0,0,0,0,0,0,0,0,0,0,0,0,0,0,0,0,0,0,0,0,0,0,0,0,0,0,0,0,0,0,0,0,0,0,0,0,0,0,0,0,0,0,0,0,0,0,3.1967,3.1966,0,3.1916,3.1916,3.1915,3.1882,3.1882,3.1882,3.1882,3.1824,3.1823,3.1821,0,0,0,0,0,0,0,0,0,0,0,0,0,3.2031,3.203,3.1967,3.1966,3.1965,3.1916,3.1916,3.1915,3.1882,3.1882,3.1882,3.1882,3.1825,3.1823,3.1821,0,0,0,0,0,0,0,0,0,0,0,0,0,3.1994,3.203,3.1967,3.1944,3.1941,3.1916,3.1915,3.1915,3.1883,3.1882,3.1882,3.1882,3.1825,3.1823,3.1821,3.1814,0,0,3.1815,3.1814,0,0,0,0,0,0,0,0,3.1996,3.1991,3.1948,3.1945,3.1942,3.1905,3.1917,3.1881,3.1883,3.1905,3.1882,3.1882,3.1851,3.1847,3.1838,3.1811,3.1809,3.1815,3.1813,3.1813,3.1812,0,0,0,0,0,0,0,3.1999,3.1993,3.1946,3.1947,3.1944,3.1934,3.1929,3.191,3.188,3.1903,3.19,3.1895,3.1849,3.184,3.1836,3.1808,3.1815,3.1813,3.1812,3.1811,3.1774,3.1774,0,0,0,0,0,0,3.2006,3.1996,3.1948,3.1945,3.1969,3.1933,3.1927,3.1917,3.188,3.1874,3.1895,3.1894,3.1843,3.1839,3.1834,3.1824,3.1813,3.1811,3.1809,3.1774,3.1774,3.1774,0,0,0,0,0,0,3.2007,3.2002,3.195,3.197,3.1963,3.1933,3.1922,3.1917,3.1907,3.1874,3.1868,3.1891,3.1843,3.1837,3.182,3.1822,3.181,3.1808,3.1774,3.1774,3.1774,3.1804,0,0,0,0,0,0,3.2009,3.2002,3.2,3.197,3.1962,3.1938,3.1922,3.1916,3.1904,3.1902,3.1869,3.1863,3.1842,3.1823,3.1818,3.1819,3.1806,3.1773,3.1774,3.1774,3.1802,3.1805,3.1807,0,0,0,0,0,3.2011,3.2009,3.2,3.1995,3.1959,3.1939,3.1933,3.1911,3.1904,3.1902,3.1881,3.1864,3.1822,3.1822,3.1815,3.1816,3.1773,3.1774,3.1774,3.1801,3.1805,3.1807,0,0,0,0,0,0,3.2038,3.2004,3.1994,3.1982,3.1964,3.1933,3.1929,3.1915,3.1896,3.1894,3.1866,3.1859,3.1845,3.1828,3.1828,3.1807,3.1796,3.1795,3.1819,3.1821,3.1824,3.1828,3.1805,0,0,0,0,0,3.2042,3.203,3.2001,3.1993,3.1985,3.1959,3.1949,3.1934,3.1912,3.1904,3.1882,3.186,3.1842,3.1831,3.1812,3.18,3.1793,3.1797,3.18,3.1802,3.1801,3.1795,3.1797,3.1776,3.1776,3.1776,0,0,3.2051,3.2032,3.2025,3.1998,3.1982,3.1969,3.1952,3.1939,3.1929,3.1901,3.1885,3.1868,3.1842,3.1828,3.182,3.1813,3.1806,3.1802,3.1804,3.1803,3.1796,3.1798,3.1799,3.1777,3.1777,3.1777,0,0,3.2061,3.2045,3.2038,3.2023,3.1999,3.1982,3.198,3.1952,3.1941,3.1924,3.1904,3.189,3.186,3.1843,3.183,3.1836,3.182,3.183,3.1843,3.1837,3.1838,3.184,3.1842,3.1844,3.183,3.183,3.183,0,3.2075,3.2056,3.2035,3.2024,3.2012,3.199,3.1981,3.1967,3.1938,3.193,3.1923,3.1886,3.1867,3.1849,3.1851,3.1841,3.1838,3.1834,3.184,3.1841,3.1842,3.1844,3.1845,3.1832,3.1832,3.1831,3.1831,0,3.2074,3.2062,3.2058,3.2034,3.2022,3.2012,3.1988,3.1979,3.1965,3.1948,3.1932,3.1909,3.1886,3.188,3.1865,3.1861,3.1858,3.1846,3.1834,3.1846,3.1848,3.1848,3.1834,3.1833,3.1833,3.1833,0,0,3.2098,3.2064,3.2063,3.2052,3.2025,3.2015,3.2004,3.1984,3.1976,3.1957,3.1947,3.1923,3.1913,3.1899,3.1882,3.1877,3.1884,3.1866,3.1865,3.1871,3.1878,3.1887,3.1889,3.1874,3.1874,3.1874,3.1881,0,3.2104,3.2086,3.2067,3.2055,3.2043,3.2022,3.2012,3.1995,3.1979,3.1966,3.1948,3.1932,3.1919,3.1911,3.1905,3.1885,3.1885,3.1884,3.1863,3.1863,3.1871,3.189,3.1899,3.1906,3.1881,3.1881,3.1881,0,3.2109,3.2094,3.2081,3.2057,3.2052,3.2044,3.2025,3.2013,3.1992,3.1981,3.1967,3.195,3.1936,3.1926,3.1908,3.1907,3.1898,3.1887,3.1886,3.1883,3.1873,3.1888,3.1908,3.1909,3.1882,3.1882,3.1882,0,3.2128,3.2105,3.2094,3.2086,3.2057,3.2053,3.204,3.2019,3.2009,3.1992,3.1985,3.1966,3.1955,3.194,3.1918,3.1913,3.1902,3.189,3.1892,3.1893,3.189,3.1891,3.191,3.1884,3.1884,3.1884,3.1884,0,3.2137,3.2131,3.2103,3.2097,3.2088,3.2067,3.2059,3.2044,3.2026,3.2016,3.1996,3.1986,3.1958,3.1945,3.1927,3.1915,3.191,3.19,3.1896,3.1902,3.1904,3.1896,3.1895,3.1884,3.1884,3.1884,3.1884,0,3.2158,3.2139,3.2127,3.2102,3.2096,3.2091,3.2069,3.2061,3.2046,3.2033,3.2029,3.2003,3.1987,3.1964,3.194,3.1928,3.1918,3.1911,3.1926,3.1924,3.1928,3.1928,3.1942,3.1943,3.1917,3.1917,3.1917,0,3.2165,3.2159,3.2135,3.2128,3.2117,3.2105,3.2096,3.2074,3.2065,3.2042,3.2037,3.202,3.2005,3.198,3.1959,3.194,3.1932,3.1939,3.1929,3.1937,3.1933,3.1934,3.1934,3.1941,3.1942,3.1942,3.1942,0,3.218,3.2171,3.2159,3.2144,3.2134,3.212,3.2106,3.2101,3.2076,3.2066,3.2051,3.2039,3.2017,3.2,3.1979,3.1965,3.1949,3.1946,3.1945,3.1952,3.1962,3.1957,3.1933,3.1945,3.1945,3.1945,3.1944,3.1944,3.2194,3.2189,3.2171,3.2159,3.2146,3.2134,3.2126,3.2111,3.2098,3.2079,3.2067,3.2052,3.2033,3.2004,3.1991,3.1978,3.1972,3.1971,3.1971,3.1971,3.1974,3.1964,3.1974,3.1974,3.1974,3.1974,3.1974,0,3.2208,3.2197,3.2185,3.2167,3.2157,3.2146,3.213,3.2122,3.211,3.2094,3.2081,3.2064,3.2048,3.2026,3.2008,3.2003,3.1995,3.1999,3.1999,3.1996,3.198,3.1983,3.2005,3.2005,3.2005,3.2005,3.2005,3.2005,3.2214,3.2206,3.2196,3.2181,3.2168,3.2156,3.2148,3.2136,3.2123,3.2106,3.2094,3.208,3.2062,3.2043,3.2028,3.2022,3.2016,3.2022,3.2014,3.2,3.1997,3.1994,3.1996,3.2021,3.2021,3.2031,3.2031,3.2031]}]]